Year,Month,Day,Hour,Minute,Value (Times are PST for temperature in C)
2008,06,23,00,00,8.50
2008,06,23,00,01,8.50
2008,06,23,00,02,8.50
2008,06,23,00,03,8.50
2008,06,23,00,04,8.50
2008,06,23,00,05,8.50
2008,06,23,00,06,8.50
2008,06,23,00,07,8.50
2008,06,23,00,08,8.40
2008,06,23,00,09,8.40
2008,06,23,00,10,8.40
2008,06,23,00,11,8.40
2008,06,23,00,12,8.50
2008,06,23,01,02,8.20
2008,06,23,01,03,8.20
2008,06,23,01,04,8.20
2008,06,23,01,05,8.20
2008,06,23,01,06,8.30
2008,06,23,01,07,8.20
2008,06,23,01,08,8.20
2008,06,23,01,09,8.20
2008,06,23,01,10,8.20
2008,06,23,01,11,8.20
2008,06,23,01,12,8.20
2008,06,23,01,13,8.20
2008,06,23,01,14,8.20
2008,06,23,01,15,8.20
2008,06,23,01,16,8.20
2008,06,23,01,17,8.20
2008,06,23,01,18,8.20
2008,06,23,01,19,8.10
2008,06,23,01,20,8.10
2008,06,23,01,21,8.10
2008,06,23,01,22,8.20
2008,06,23,01,23,8.20
2008,06,23,01,24,8.20
2008,06,23,01,25,8.20
2008,06,23,01,26,8.20
2008,06,23,01,27,8.20
2008,06,23,01,28,8.20
2008,06,23,01,29,8.20
2008,06,23,01,30,8.20
2008,06,23,01,31,8.20
2008,06,23,01,32,8.20
2008,06,23,01,33,8.20
2008,06,23,01,34,8.20
2008,06,23,01,35,8.20
2008,06,23,01,36,8.20
2008,06,23,01,37,8.20
2008,06,23,01,38,8.20
2008,06,23,01,39,8.20
2008,06,23,01,40,8.20
2008,06,23,01,41,8.20
2008,06,23,01,42,8.10
2008,06,23,01,43,8.10
2008,06,23,01,44,8.10
2008,06,23,01,45,8.10
2008,06,23,01,46,8.20
2008,06,23,01,47,8.20
2008,06,23,01,48,8.20
2008,06,23,01,49,8.20
2008,06,23,01,50,8.20
2008,06,23,01,51,8.20
2008,06,23,01,52,8.20
2008,06,23,01,53,8.20
2008,06,23,01,54,8.20
2008,06,23,01,55,8.20
2008,06,23,01,56,8.20
2008,06,23,01,57,8.20
2008,06,23,01,58,8.20
2008,06,23,01,59,8.20
2008,06,23,02,00,8.20
2008,06,23,02,01,8.10
2008,06,23,02,02,8.10
2008,06,23,02,03,8.10
2008,06,23,02,04,8.10
2008,06,23,02,05,8.10
2008,06,23,02,06,8.10
2008,06,23,02,07,8.10
2008,06,23,02,08,8.10
2008,06,23,02,09,8.10
2008,06,23,02,10,8.10
2008,06,23,02,11,8.10
2008,06,23,02,12,8.10
2008,06,23,02,13,8.00
2008,06,23,02,14,8.00
2008,06,23,02,15,8.00
2008,06,23,02,16,8.00
2008,06,23,02,17,8.00
2008,06,23,02,18,8.00
2008,06,23,02,19,8.10
2008,06,23,02,20,8.10
2008,06,23,02,21,8.10
2008,06,23,02,22,8.10
2008,06,23,02,23,8.10
2008,06,23,02,24,8.10
2008,06,23,02,25,8.10
2008,06,23,02,26,8.10
2008,06,23,02,27,8.10
2008,06,23,02,28,8.10
2008,06,23,02,29,8.00
2008,06,23,02,30,8.00
2008,06,23,02,31,8.00
2008,06,23,02,32,8.00
2008,06,23,02,33,8.00
2008,06,23,02,34,8.00
2008,06,23,02,35,8.00
2008,06,23,02,36,8.00
2008,06,23,02,37,8.00
2008,06,23,02,38,8.00
2008,06,23,02,39,8.00
2008,06,23,02,40,8.00
2008,06,23,02,41,8.00
2008,06,23,02,42,7.90
2008,06,23,02,43,7.90
2008,06,23,02,44,7.90
2008,06,23,02,45,7.90
2008,06,23,02,46,7.90
2008,06,23,02,47,7.90
2008,06,23,02,48,7.90
2008,06,23,02,49,7.90
2008,06,23,02,50,7.90
2008,06,23,02,51,7.90
2008,06,23,02,52,7.90
2008,06,23,02,53,7.90
2008,06,23,02,54,7.90
2008,06,23,02,55,7.90
2008,06,23,02,56,7.90
2008,06,23,02,57,7.90
2008,06,23,02,58,7.90
2008,06,23,02,59,7.90
2008,06,23,03,00,7.90
2008,06,23,03,01,7.90
2008,06,23,03,02,7.90
2008,06,23,03,03,7.90
2008,06,23,03,04,7.90
2008,06,23,03,05,7.90
2008,06,23,03,06,7.90
2008,06,23,03,07,7.90
2008,06,23,03,08,7.90
2008,06,23,03,09,7.90
2008,06,23,03,10,7.90
2008,06,23,03,11,7.90
2008,06,23,03,12,7.90
2008,06,23,03,13,7.90
2008,06,23,03,14,7.90
2008,06,23,03,15,7.90
2008,06,23,03,16,7.90
2008,06,23,03,17,7.90
2008,06,23,03,18,8.00
2008,06,23,03,19,8.00
2008,06,23,03,20,8.00
2008,06,23,03,21,8.00
2008,06,23,03,22,8.00
2008,06,23,03,23,8.00
2008,06,23,03,24,8.00
2008,06,23,03,25,8.00
2008,06,23,03,26,8.00
2008,06,23,03,27,8.00
2008,06,23,03,28,8.00
2008,06,23,03,29,8.00
2008,06,23,03,30,8.00
2008,06,23,03,31,8.00
2008,06,23,03,32,8.00
2008,06,23,03,33,8.00
2008,06,23,03,34,8.00
2008,06,23,03,35,8.00
2008,06,23,03,36,8.00
2008,06,23,03,37,8.00
2008,06,23,03,38,8.00
2008,06,23,03,39,8.00
2008,06,23,03,40,8.00
2008,06,23,03,41,8.00
2008,06,23,03,42,7.90
2008,06,23,03,43,7.90
2008,06,23,03,44,7.90
2008,06,23,03,45,7.90
2008,06,23,03,46,7.90
2008,06,23,03,47,8.00
2008,06,23,03,48,7.90
2008,06,23,03,49,7.90
2008,06,23,03,50,7.90
2008,06,23,03,51,8.00
2008,06,23,03,52,7.90
2008,06,23,03,53,7.90
2008,06,23,03,54,7.90
2008,06,23,03,55,8.00
2008,06,23,03,56,8.00
2008,06,23,03,57,8.00
2008,06,23,03,58,8.00
2008,06,23,03,59,8.00
2008,06,23,04,00,8.00
2008,06,23,04,01,8.00
2008,06,23,04,02,8.00
2008,06,23,04,03,7.90
2008,06,23,04,04,7.90
2008,06,23,04,05,7.90
2008,06,23,04,06,8.00
2008,06,23,04,07,8.00
2008,06,23,04,08,8.00
2008,06,23,04,09,8.00
2008,06,23,04,10,8.00
2008,06,23,04,11,8.00
2008,06,23,04,12,8.00
2008,06,23,04,13,8.00
2008,06,23,04,14,8.00
2008,06,23,04,15,8.10
2008,06,23,04,16,8.10
2008,06,23,04,17,8.10
2008,06,23,04,18,8.00
2008,06,23,04,19,8.10
2008,06,23,04,20,8.10
2008,06,23,04,21,8.10
2008,06,23,04,22,8.10
2008,06,23,04,23,8.10
2008,06,23,04,24,8.00
2008,06,23,04,25,8.00
2008,06,23,04,26,8.00
2008,06,23,04,27,8.00
2008,06,23,04,28,8.00
2008,06,23,04,29,8.00
2008,06,23,04,30,8.00
2008,06,23,04,31,8.00
2008,06,23,04,32,8.00
2008,06,23,04,33,8.00
2008,06,23,04,34,8.00
2008,06,23,04,35,8.00
2008,06,23,04,36,7.90
2008,06,23,04,37,7.90
2008,06,23,04,38,7.90
2008,06,23,04,39,7.90
2008,06,23,04,40,7.90
2008,06,23,04,41,7.90
2008,06,23,04,42,7.90
2008,06,23,04,43,7.80
2008,06,23,04,44,7.80
2008,06,23,04,45,7.80
2008,06,23,04,46,7.80
2008,06,23,04,47,7.80
2008,06,23,04,48,7.80
2008,06,23,04,49,7.80
2008,06,23,04,50,7.80
2008,06,23,04,51,7.80
2008,06,23,04,52,7.80
2008,06,23,04,53,7.80
2008,06,23,04,54,7.80
2008,06,23,04,55,7.80
2008,06,23,04,56,7.80
2008,06,23,04,57,7.80
2008,06,23,04,58,7.80
2008,06,23,04,59,7.80
2008,06,23,05,00,7.80
2008,06,23,05,01,7.80
2008,06,23,05,02,7.80
2008,06,23,05,03,7.80
2008,06,23,05,04,7.80
2008,06,23,05,05,7.70
2008,06,23,05,06,7.70
2008,06,23,05,07,7.70
2008,06,23,05,08,7.70
2008,06,23,05,09,7.70
2008,06,23,05,10,7.70
2008,06,23,05,11,7.70
2008,06,23,05,12,7.70
2008,06,23,05,13,7.70
2008,06,23,05,14,7.70
2008,06,23,05,15,7.60
2008,06,23,05,16,7.60
2008,06,23,05,17,7.60
2008,06,23,05,18,7.60
2008,06,23,05,19,7.60
2008,06,23,05,20,7.60
2008,06,23,05,21,7.60
2008,06,23,05,22,7.60
2008,06,23,05,23,7.50
2008,06,23,05,24,7.50
2008,06,23,05,25,7.50
2008,06,23,05,26,7.50
2008,06,23,05,27,7.50
2008,06,23,05,28,7.50
2008,06,23,05,29,7.50
2008,06,23,05,30,7.40
2008,06,23,05,31,7.40
2008,06,23,05,32,7.40
2008,06,23,05,33,7.40
2008,06,23,05,34,7.40
2008,06,23,05,35,7.40
2008,06,23,05,36,7.40
2008,06,23,05,37,7.40
2008,06,23,05,38,7.40
2008,06,23,05,39,7.40
2008,06,23,05,40,7.40
2008,06,23,05,41,7.40
2008,06,23,05,42,7.40
2008,06,23,05,43,7.40
2008,06,23,05,44,7.40
2008,06,23,05,45,7.40
2008,06,23,05,46,7.40
2008,06,23,05,47,7.40
2008,06,23,05,48,7.40
2008,06,23,05,49,7.40
2008,06,23,05,50,7.40
2008,06,23,05,51,7.40
2008,06,23,05,52,7.40
2008,06,23,05,53,7.40
2008,06,23,05,54,7.40
2008,06,23,05,55,7.40
2008,06,23,05,56,7.40
2008,06,23,05,57,7.40
2008,06,23,05,58,7.40
2008,06,23,05,59,7.40
2008,06,23,06,00,7.40
2008,06,23,06,01,7.40
2008,06,23,06,02,7.40
2008,06,23,06,03,7.40
2008,06,23,06,04,7.40
2008,06,23,06,05,7.40
2008,06,23,06,06,7.50
2008,06,23,06,07,7.50
2008,06,23,06,08,7.50
2008,06,23,06,09,7.50
2008,06,23,06,10,7.50
2008,06,23,06,11,7.50
2008,06,23,06,12,7.40
2008,06,23,06,13,7.40
2008,06,23,06,14,7.40
2008,06,23,06,15,7.40
2008,06,23,06,16,7.40
2008,06,23,06,17,7.40
2008,06,23,06,18,7.50
2008,06,23,06,19,7.50
2008,06,23,06,20,7.50
2008,06,23,06,21,7.50
2008,06,23,06,22,7.60
2008,06,23,06,23,7.60
2008,06,23,06,24,7.60
2008,06,23,06,25,7.60
2008,06,23,06,26,7.60
2008,06,23,06,27,7.60
2008,06,23,06,28,7.70
2008,06,23,06,29,7.70
2008,06,23,06,30,7.70
2008,06,23,06,31,7.80
2008,06,23,06,32,7.80
2008,06,23,06,33,7.90
2008,06,23,06,34,7.90
2008,06,23,06,35,8.00
2008,06,23,06,36,8.00
2008,06,23,06,37,8.10
2008,06,23,06,38,8.10
2008,06,23,06,39,8.10
2008,06,23,06,40,8.10
2008,06,23,06,41,8.10
2008,06,23,06,42,8.20
2008,06,23,06,43,8.20
2008,06,23,06,44,8.20
2008,06,23,06,45,8.20
2008,06,23,06,46,8.20
2008,06,23,06,47,8.30
2008,06,23,06,48,8.30
2008,06,23,06,49,8.30
2008,06,23,06,50,8.40
2008,06,23,06,51,8.40
2008,06,23,06,52,8.50
2008,06,23,06,53,8.50
2008,06,23,06,54,8.60
2008,06,23,06,55,8.60
2008,06,23,06,56,8.60
2008,06,23,06,57,8.70
2008,06,23,06,58,8.70
2008,06,23,06,59,8.70
2008,06,23,07,00,8.80
2008,06,23,07,01,8.80
2008,06,23,07,02,8.80
2008,06,23,07,03,8.90
2008,06,23,07,04,8.90
2008,06,23,07,05,9.00
2008,06,23,07,06,9.00
2008,06,23,07,07,9.10
2008,06,23,07,08,9.10
2008,06,23,07,09,9.20
2008,06,23,07,10,9.20
2008,06,23,07,11,9.20
2008,06,23,07,12,9.20
2008,06,23,07,13,9.30
2008,06,23,07,14,9.30
2008,06,23,07,15,9.30
2008,06,23,07,16,9.40
2008,06,23,07,17,9.40
2008,06,23,07,18,9.50
2008,06,23,07,19,9.40
2008,06,23,07,20,9.50
2008,06,23,07,21,9.40
2008,06,23,07,22,9.50
2008,06,23,07,23,9.50
2008,06,23,07,24,9.50
2008,06,23,07,25,9.50
2008,06,23,07,26,9.50
2008,06,23,07,27,9.60
2008,06,23,07,28,9.60
2008,06,23,07,29,9.60
2008,06,23,07,30,9.60
2008,06,23,07,31,9.60
2008,06,23,07,32,9.60
2008,06,23,07,33,9.60
2008,06,23,07,34,9.60
2008,06,23,07,35,9.70
2008,06,23,07,36,9.70
2008,06,23,07,37,9.70
2008,06,23,07,38,9.70
2008,06,23,07,39,9.70
2008,06,23,07,40,9.70
2008,06,23,07,41,9.70
2008,06,23,07,42,9.70
2008,06,23,07,43,9.80
2008,06,23,07,44,9.80
2008,06,23,07,45,9.80
2008,06,23,07,46,9.80
2008,06,23,07,47,9.80
2008,06,23,07,48,9.80
2008,06,23,07,49,9.90
2008,06,23,07,50,9.90
2008,06,23,07,51,9.90
2008,06,23,07,52,9.90
2008,06,23,07,53,10.00
2008,06,23,07,54,10.00
2008,06,23,07,55,10.10
2008,06,23,07,56,10.10
2008,06,23,07,57,10.20
2008,06,23,07,58,10.20
2008,06,23,07,59,10.30
2008,06,23,08,00,10.30
2008,06,23,08,01,10.40
2008,06,23,08,02,10.40
2008,06,23,08,03,10.50
2008,06,23,08,04,10.60
2008,06,23,08,05,10.60
2008,06,23,08,06,10.70
2008,06,23,08,07,10.70
2008,06,23,08,08,10.70
2008,06,23,08,09,10.80
2008,06,23,08,10,10.80
2008,06,23,08,11,10.90
2008,06,23,08,12,10.90
2008,06,23,08,13,11.00
2008,06,23,08,14,11.00
2008,06,23,08,15,11.10
2008,06,23,08,16,11.10
2008,06,23,08,17,11.10
2008,06,23,08,18,11.20
2008,06,23,08,19,11.20
2008,06,23,08,20,11.20
2008,06,23,08,21,11.30
2008,06,23,08,22,11.30
2008,06,23,08,23,11.40
2008,06,23,08,24,11.40
2008,06,23,08,25,11.50
2008,06,23,08,26,11.50
2008,06,23,08,27,11.60
2008,06,23,08,28,11.60
2008,06,23,08,29,11.70
2008,06,23,08,30,11.70
2008,06,23,08,31,11.80
2008,06,23,08,32,11.90
2008,06,23,08,33,11.90
2008,06,23,08,34,11.90
2008,06,23,08,35,12.00
2008,06,23,08,36,12.10
2008,06,23,08,37,12.10
2008,06,23,08,38,12.20
2008,06,23,08,39,12.20
2008,06,23,08,40,12.30
2008,06,23,08,41,12.30
2008,06,23,08,42,12.40
2008,06,23,08,43,12.40
2008,06,23,08,44,12.40
2008,06,23,08,45,12.30
2008,06,23,08,46,12.30
2008,06,23,08,47,12.30
2008,06,23,08,48,12.30
2008,06,23,08,49,12.40
2008,06,23,08,50,12.40
2008,06,23,08,51,12.40
2008,06,23,08,52,12.40
2008,06,23,08,53,12.40
2008,06,23,08,54,12.40
2008,06,23,08,55,12.40
2008,06,23,08,56,12.40
2008,06,23,08,57,12.40
2008,06,23,08,58,12.40
2008,06,23,08,59,12.40
2008,06,23,09,00,12.30
2008,06,23,09,01,12.30
2008,06,23,09,02,12.30
2008,06,23,09,03,12.30
2008,06,23,09,04,12.40
2008,06,23,09,05,12.40
2008,06,23,09,06,12.40
2008,06,23,09,07,12.50
2008,06,23,09,08,12.50
2008,06,23,09,09,12.60
2008,06,23,09,10,12.60
2008,06,23,09,11,12.60
2008,06,23,09,12,12.60
2008,06,23,09,13,12.60
2008,06,23,09,14,12.60
2008,06,23,09,15,12.70
2008,06,23,09,16,12.60
2008,06,23,09,17,12.70
2008,06,23,09,18,12.70
2008,06,23,09,19,12.70
2008,06,23,09,20,12.80
2008,06,23,09,21,12.80
2008,06,23,09,22,12.80
2008,06,23,09,23,12.70
2008,06,23,09,24,12.70
2008,06,23,09,25,12.70
2008,06,23,09,26,12.70
2008,06,23,09,27,12.70
2008,06,23,09,28,12.70
2008,06,23,09,29,12.70
2008,06,23,09,30,12.70
2008,06,23,09,31,12.70
2008,06,23,09,32,12.70
2008,06,23,09,33,12.70
2008,06,23,09,34,12.70
2008,06,23,09,35,12.70
2008,06,23,09,36,12.70
2008,06,23,09,37,12.70
2008,06,23,09,38,12.70
2008,06,23,09,39,12.70
2008,06,23,09,40,12.70
2008,06,23,09,41,12.70
2008,06,23,09,42,12.80
2008,06,23,09,43,12.70
2008,06,23,09,44,12.70
2008,06,23,09,45,12.60
2008,06,23,09,46,12.60
2008,06,23,09,47,12.50
2008,06,23,09,48,12.50
2008,06,23,09,49,12.50
2008,06,23,09,50,12.50
2008,06,23,09,51,12.50
2008,06,23,09,52,12.50
2008,06,23,09,53,12.40
2008,06,23,09,54,12.40
2008,06,23,09,55,12.50
2008,06,23,09,56,12.60
2008,06,23,09,57,12.60
2008,06,23,09,58,12.60
2008,06,23,09,59,12.60
2008,06,23,10,00,12.60
2008,06,23,10,01,12.60
2008,06,23,10,02,12.70
2008,06,23,10,03,12.70
2008,06,23,10,04,12.70
2008,06,23,10,05,12.70
2008,06,23,10,06,12.70
2008,06,23,10,07,12.80
2008,06,23,10,08,12.80
2008,06,23,10,09,12.80
2008,06,23,10,10,12.80
2008,06,23,10,11,12.80
2008,06,23,10,12,12.80
2008,06,23,10,13,12.80
2008,06,23,10,14,12.80
2008,06,23,10,15,12.80
2008,06,23,10,16,12.90
2008,06,23,10,17,12.90
2008,06,23,10,18,12.90
2008,06,23,10,19,12.90
2008,06,23,10,20,12.90
2008,06,23,10,21,12.90
2008,06,23,10,22,12.90
2008,06,23,10,23,12.90
2008,06,23,10,24,12.90
2008,06,23,10,25,12.90
2008,06,23,10,26,12.90
2008,06,23,10,27,13.00
2008,06,23,10,28,13.00
2008,06,23,10,29,12.90
2008,06,23,10,30,12.90
2008,06,23,10,31,13.00
2008,06,23,10,32,13.00
2008,06,23,10,33,13.10
2008,06,23,10,34,13.10
2008,06,23,10,35,13.10
2008,06,23,10,36,13.10
2008,06,23,10,37,13.20
2008,06,23,10,38,13.20
2008,06,23,10,39,13.20
2008,06,23,10,40,13.20
2008,06,23,10,41,13.20
2008,06,23,10,42,13.20
2008,06,23,10,43,13.20
2008,06,23,10,44,13.20
2008,06,23,10,45,13.20
2008,06,23,10,46,13.20
2008,06,23,10,47,13.30
2008,06,23,10,48,13.40
2008,06,23,10,49,13.40
2008,06,23,10,50,13.50
2008,06,23,10,51,13.60
2008,06,23,10,52,13.60
2008,06,23,10,53,13.70
2008,06,23,10,54,13.70
2008,06,23,10,55,13.70
2008,06,23,10,56,13.70
2008,06,23,10,57,13.70
2008,06,23,10,58,13.70
2008,06,23,10,59,13.70
2008,06,23,11,00,13.80
2008,06,23,11,01,13.80
2008,06,23,11,02,13.80
2008,06,23,11,03,13.80
2008,06,23,11,04,13.90
2008,06,23,11,05,14.00
2008,06,23,11,06,14.00
2008,06,23,11,07,14.00
2008,06,23,11,08,14.00
2008,06,23,11,09,14.10
2008,06,23,11,10,14.10
2008,06,23,11,11,14.10
2008,06,23,11,12,14.10
2008,06,23,11,13,14.20
2008,06,23,11,14,14.20
2008,06,23,11,15,14.30
2008,06,23,11,16,14.30
2008,06,23,11,17,14.30
2008,06,23,11,18,14.20
2008,06,23,11,19,14.20
2008,06,23,11,20,14.20
2008,06,23,11,21,14.20
2008,06,23,11,22,14.30
2008,06,23,11,23,14.30
2008,06,23,11,24,14.30
2008,06,23,11,25,14.30
2008,06,23,11,26,14.30
2008,06,23,11,27,14.40
2008,06,23,11,28,14.40
2008,06,23,11,29,14.40
2008,06,23,11,30,14.50
2008,06,23,11,31,14.60
2008,06,23,11,32,14.70
2008,06,23,11,33,14.70
2008,06,23,11,34,14.80
2008,06,23,11,35,14.80
2008,06,23,11,36,14.80
2008,06,23,11,37,14.90
2008,06,23,11,38,14.90
2008,06,23,11,39,15.00
2008,06,23,11,40,15.00
2008,06,23,11,41,15.00
2008,06,23,11,42,15.00
2008,06,23,11,43,15.00
2008,06,23,11,44,15.00
2008,06,23,11,45,15.00
2008,06,23,11,46,15.00
2008,06,23,11,47,15.00
2008,06,23,11,48,15.00
2008,06,23,11,49,15.10
2008,06,23,11,50,15.00
2008,06,23,11,51,15.10
2008,06,23,11,52,15.20
2008,06,23,11,53,15.20
2008,06,23,11,54,15.30
2008,06,23,11,55,15.30
2008,06,23,11,56,15.40
2008,06,23,11,57,15.50
2008,06,23,11,58,15.50
2008,06,23,11,59,15.60
2008,06,23,12,00,15.70
2008,06,23,12,01,15.70
2008,06,23,12,02,15.80
2008,06,23,12,03,15.90
2008,06,23,12,04,15.90
2008,06,23,12,05,16.10
2008,06,23,12,06,16.10
2008,06,23,12,07,16.10
2008,06,23,12,08,16.10
2008,06,23,12,09,16.10
2008,06,23,12,10,16.00
2008,06,23,12,11,15.90
2008,06,23,12,12,15.90
2008,06,23,12,13,15.80
2008,06,23,12,14,15.80
2008,06,23,12,15,15.80
2008,06,23,12,16,15.80
2008,06,23,12,17,15.80
2008,06,23,12,18,15.80
2008,06,23,12,19,15.80
2008,06,23,12,20,15.80
2008,06,23,12,21,15.70
2008,06,23,12,22,15.70
2008,06,23,12,23,15.70
2008,06,23,12,24,15.70
2008,06,23,12,25,15.80
2008,06,23,12,26,15.70
2008,06,23,12,27,15.70
2008,06,23,12,28,15.70
2008,06,23,12,29,15.70
2008,06,23,12,30,15.60
2008,06,23,12,31,15.60
2008,06,23,12,32,15.50
2008,06,23,12,33,15.40
2008,06,23,12,34,15.40
2008,06,23,12,35,15.30
2008,06,23,12,36,15.30
2008,06,23,12,37,15.30
2008,06,23,12,38,15.20
2008,06,23,12,39,15.00
2008,06,23,12,40,15.00
2008,06,23,12,41,14.90
2008,06,23,12,42,14.80
2008,06,23,12,43,14.70
2008,06,23,12,44,14.70
2008,06,23,12,45,14.60
2008,06,23,12,46,14.50
2008,06,23,12,47,14.50
2008,06,23,12,48,14.40
2008,06,23,12,49,14.30
2008,06,23,12,50,14.10
2008,06,23,12,51,14.00
2008,06,23,12,52,13.90
2008,06,23,12,53,13.80
2008,06,23,12,54,13.80
2008,06,23,12,55,13.80
2008,06,23,12,56,13.80
2008,06,23,12,57,13.80
2008,06,23,12,58,13.80
2008,06,23,12,59,13.80
2008,06,23,13,00,13.80
2008,06,23,13,01,13.90
2008,06,23,13,02,14.10
2008,06,23,13,03,14.20
2008,06,23,13,04,14.30
2008,06,23,13,05,14.40
2008,06,23,13,06,14.60
2008,06,23,13,07,14.60
2008,06,23,13,08,14.60
2008,06,23,13,09,14.60
2008,06,23,13,10,14.70
2008,06,23,13,11,14.80
2008,06,23,13,12,14.90
2008,06,23,13,13,15.00
2008,06,23,13,14,15.00
2008,06,23,13,15,15.00
2008,06,23,13,16,15.00
2008,06,23,13,17,15.00
2008,06,23,13,18,15.00
2008,06,23,13,19,15.00
2008,06,23,13,20,15.00
2008,06,23,13,21,15.10
2008,06,23,13,22,15.20
2008,06,23,13,23,15.40
2008,06,23,13,24,15.50
2008,06,23,13,25,15.60
2008,06,23,13,26,15.60
2008,06,23,13,27,15.60
2008,06,23,13,28,15.70
2008,06,23,13,29,15.70
2008,06,23,13,30,15.70
2008,06,23,13,31,15.70
2008,06,23,13,32,15.80
2008,06,23,13,33,15.90
2008,06,23,13,34,16.00
2008,06,23,13,35,16.10
2008,06,23,13,36,16.10
2008,06,23,13,37,16.00
2008,06,23,13,38,16.00
2008,06,23,13,39,15.90
2008,06,23,13,40,15.70
2008,06,23,13,41,15.60
2008,06,23,13,42,15.60
2008,06,23,13,43,15.50
2008,06,23,13,44,15.40
2008,06,23,13,45,15.40
2008,06,23,13,46,15.50
2008,06,23,13,47,15.60
2008,06,23,13,48,15.70
2008,06,23,13,49,15.70
2008,06,23,13,50,15.70
2008,06,23,13,51,15.80
2008,06,23,13,52,15.80
2008,06,23,13,53,15.80
2008,06,23,13,54,15.80
2008,06,23,13,55,15.80
2008,06,23,13,56,15.70
2008,06,23,13,57,15.90
2008,06,23,13,58,16.00
2008,06,23,13,59,16.20
2008,06,23,14,00,16.20
2008,06,23,14,01,16.10
2008,06,23,14,02,16.00
2008,06,23,14,03,16.00
2008,06,23,14,04,16.00
2008,06,23,14,05,15.90
2008,06,23,14,06,15.90
2008,06,23,14,07,15.90
2008,06,23,14,08,15.90
2008,06,23,14,09,15.90
2008,06,23,14,10,15.90
2008,06,23,14,11,15.80
2008,06,23,14,12,15.80
2008,06,23,14,13,15.90
2008,06,23,14,14,16.00
2008,06,23,14,15,16.10
2008,06,23,14,16,16.20
2008,06,23,14,17,16.20
2008,06,23,14,18,16.30
2008,06,23,14,19,16.40
2008,06,23,14,20,16.50
2008,06,23,14,21,16.60
2008,06,23,14,22,16.70
2008,06,23,14,23,16.80
2008,06,23,14,24,16.80
2008,06,23,14,25,16.70
2008,06,23,14,26,16.70
2008,06,23,14,27,16.80
2008,06,23,14,28,16.90
2008,06,23,14,29,16.90
2008,06,23,14,30,16.90
2008,06,23,14,31,16.90
2008,06,23,14,32,17.00
2008,06,23,14,33,17.10
2008,06,23,14,34,17.10
2008,06,23,14,35,17.10
2008,06,23,14,36,17.10
2008,06,23,14,37,17.10
2008,06,23,14,38,17.10
2008,06,23,14,39,17.10
2008,06,23,14,40,17.10
2008,06,23,14,41,17.00
2008,06,23,14,42,16.90
2008,06,23,14,43,16.90
2008,06,23,14,44,16.90
2008,06,23,14,45,16.90
2008,06,23,14,46,17.00
2008,06,23,14,47,17.10
2008,06,23,14,48,17.30
2008,06,23,14,49,17.30
2008,06,23,14,50,17.30
2008,06,23,14,51,17.20
2008,06,23,14,52,17.20
2008,06,23,14,53,17.10
2008,06,23,14,54,17.20
2008,06,23,14,55,17.20
2008,06,23,14,56,17.20
2008,06,23,14,57,17.20
2008,06,23,14,58,17.30
2008,06,23,14,59,17.30
2008,06,23,15,00,17.30
2008,06,23,15,01,17.40
2008,06,23,15,02,17.40
2008,06,23,15,03,17.50
2008,06,23,15,04,17.60
2008,06,23,15,05,17.60
2008,06,23,15,06,17.50
2008,06,23,15,07,17.40
2008,06,23,15,08,17.30
2008,06,23,15,09,17.50
2008,06,23,15,10,17.60
2008,06,23,15,11,17.70
2008,06,23,15,12,17.80
2008,06,23,15,13,17.90
2008,06,23,15,14,17.80
2008,06,23,15,15,17.80
2008,06,23,15,16,17.80
2008,06,23,15,17,17.80
2008,06,23,15,18,17.70
2008,06,23,15,19,17.60
2008,06,23,15,20,17.40
2008,06,23,15,21,17.40
2008,06,23,15,22,17.40
2008,06,23,15,23,17.40
2008,06,23,15,24,17.40
2008,06,23,15,25,17.50
2008,06,23,15,26,17.50
2008,06,23,15,27,17.60
2008,06,23,15,28,17.60
2008,06,23,15,29,17.60
2008,06,23,15,30,17.70
2008,06,23,15,31,17.70
2008,06,23,15,32,17.70
2008,06,23,15,33,17.60
2008,06,23,15,34,17.60
2008,06,23,15,35,17.60
2008,06,23,15,36,17.60
2008,06,23,15,37,17.60
2008,06,23,15,38,17.50
2008,06,23,15,39,17.50
2008,06,23,15,40,17.40
2008,06,23,15,41,17.50
2008,06,23,15,42,17.40
2008,06,23,15,43,17.40
2008,06,23,15,44,17.40
2008,06,23,15,45,17.40
2008,06,23,15,46,17.40
2008,06,23,15,47,17.30
2008,06,23,15,48,17.20
2008,06,23,15,49,17.10
2008,06,23,15,50,17.10
2008,06,23,15,51,17.10
2008,06,23,15,52,17.00
2008,06,23,15,53,17.00
2008,06,23,15,54,17.10
2008,06,23,15,55,17.10
2008,06,23,15,56,17.20
2008,06,23,15,57,17.20
2008,06,23,15,58,17.20
2008,06,23,15,59,17.20
2008,06,23,16,00,17.20
2008,06,23,16,01,17.20
2008,06,23,16,02,17.20
2008,06,23,16,03,17.30
2008,06,23,16,04,17.40
2008,06,23,16,05,17.40
2008,06,23,16,06,17.40
2008,06,23,16,07,17.30
2008,06,23,16,08,17.30
2008,06,23,16,09,17.40
2008,06,23,16,10,17.50
2008,06,23,16,11,17.50
2008,06,23,16,12,17.30
2008,06,23,16,13,17.20
2008,06,23,16,14,17.10
2008,06,23,16,15,17.00
2008,06,23,16,16,16.90
2008,06,23,16,17,16.90
2008,06,23,16,18,16.80
2008,06,23,16,19,16.70
2008,06,23,16,20,16.70
2008,06,23,16,21,16.70
2008,06,23,16,22,16.70
2008,06,23,16,23,16.60
2008,06,23,16,24,16.60
2008,06,23,16,25,16.70
2008,06,23,16,26,16.90
2008,06,23,16,27,17.10
2008,06,23,16,28,17.20
2008,06,23,16,29,17.10
2008,06,23,16,30,17.10
2008,06,23,16,31,17.00
2008,06,23,16,32,17.00
2008,06,23,16,33,16.90
2008,06,23,16,34,16.80
2008,06,23,16,35,16.70
2008,06,23,16,36,16.80
2008,06,23,16,37,16.80
2008,06,23,16,38,16.90
2008,06,23,16,39,16.90
2008,06,23,16,40,16.90
2008,06,23,16,41,17.00
2008,06,23,16,42,17.00
2008,06,23,16,43,17.10
2008,06,23,16,44,17.10
2008,06,23,16,45,17.10
2008,06,23,16,46,17.10
2008,06,23,16,47,17.10
2008,06,23,16,48,17.20
2008,06,23,16,49,17.20
2008,06,23,16,50,17.10
2008,06,23,16,51,17.20
2008,06,23,16,52,17.20
2008,06,23,16,53,17.40
2008,06,23,16,54,17.40
2008,06,23,16,55,17.50
2008,06,23,16,56,17.50
2008,06,23,16,57,17.50
2008,06,23,16,58,17.40
2008,06,23,16,59,17.30
2008,06,23,17,00,17.30
2008,06,23,17,01,17.30
2008,06,23,17,02,17.40
2008,06,23,17,03,17.50
2008,06,23,17,04,17.60
2008,06,23,17,05,17.70
2008,06,23,17,06,17.80
2008,06,23,17,07,17.80
2008,06,23,17,08,17.80
2008,06,23,17,09,17.80
2008,06,23,17,10,17.70
2008,06,23,17,11,17.60
2008,06,23,17,12,17.40
2008,06,23,17,13,17.30
2008,06,23,17,14,17.20
2008,06,23,17,15,17.20
2008,06,23,17,16,17.20
2008,06,23,17,17,17.20
2008,06,23,17,18,17.30
2008,06,23,17,19,17.40
2008,06,23,17,20,17.40
2008,06,23,17,21,17.40
2008,06,23,17,22,17.40
2008,06,23,17,23,17.40
2008,06,23,17,24,17.40
2008,06,23,17,25,17.40
2008,06,23,17,26,17.40
2008,06,23,17,27,17.30
2008,06,23,17,28,17.30
2008,06,23,17,29,17.30
2008,06,23,17,30,17.30
2008,06,23,17,31,17.30
2008,06,23,17,32,17.30
2008,06,23,17,33,17.30
2008,06,23,17,34,17.30
2008,06,23,17,35,17.20
2008,06,23,17,36,17.20
2008,06,23,17,37,17.20
2008,06,23,17,38,17.20
2008,06,23,17,39,17.10
2008,06,23,17,40,17.10
2008,06,23,17,41,17.10
2008,06,23,17,42,17.10
2008,06,23,17,43,17.10
2008,06,23,17,44,17.10
2008,06,23,17,45,17.10
2008,06,23,17,46,17.10
2008,06,23,17,47,17.10
2008,06,23,17,48,17.10
2008,06,23,17,49,17.10
2008,06,23,17,50,17.10
2008,06,23,17,51,17.10
2008,06,23,17,52,17.10
2008,06,23,17,53,17.10
2008,06,23,17,54,17.00
2008,06,23,17,55,16.90
2008,06,23,17,56,16.90
2008,06,23,17,57,16.90
2008,06,23,17,58,16.90
2008,06,23,17,59,16.90
2008,06,23,18,00,17.00
2008,06,23,18,01,17.00
2008,06,23,18,02,17.00
2008,06,23,18,03,17.00
2008,06,23,18,04,17.00
2008,06,23,18,05,17.00
2008,06,23,18,06,17.10
2008,06,23,18,07,17.10
2008,06,23,18,08,17.00
2008,06,23,18,09,16.90
2008,06,23,18,10,16.80
2008,06,23,18,11,16.80
2008,06,23,18,12,16.80
2008,06,23,18,13,16.70
2008,06,23,18,14,16.70
2008,06,23,18,15,16.60
2008,06,23,18,16,16.50
2008,06,23,18,17,16.50
2008,06,23,18,18,16.50
2008,06,23,18,19,16.40
2008,06,23,18,20,16.40
2008,06,23,18,21,16.30
2008,06,23,18,22,16.30
2008,06,23,18,23,16.30
2008,06,23,18,24,16.30
2008,06,23,18,25,16.30
2008,06,23,18,26,16.20